Showing default

PESSOA, 100139

Orbit data source: Space-Track

PESSOA, 100139 is a Portuguese payload satellite in SSO that was launched on Mon, 30 Mar 2026 UTC launched from the Air Force Western Test Range (AFWTR). Payload-class satellites include a variety of spacecraft equipped with specific instruments for various scientific and technological missions. These include communications satellites like Starlink; space stations such as the ISS; scientific satellites like the Hubble; Earth observation satellites from companies like Planet Labs, Umbra, and HawkEye 360; GPS; miniature CubeSats for education and research; and military/defense satellites.

Loading next visibility...
Identifier
100139, 2026-067CZ
Orbit
SSO
Country
Flag of PTPT / POR
Related business
Manufacturer
LUSO
Mission
Operational spacecraft
Bus & Motor
CUBESAT 8U, Unknown motor
Mass
~15 kg wet, ~15 kg dry
Launch date (UTC)
2026-03-30 (6 months ago)
Launch vehicle
Unknown
Launch site
Air Force Western Test Range (AFWTR)
Object type
Payload
Rocket body
Debris
Shape & HBR
BOX, 14.5 m
Radar Cross Section
Medium (>0.1 m² and <1 m²)

Expand to show TLE details & history
Last TLE update: 18 hours ago

TLE from 18 hours ago
0 PESSOA
1 A0139U 26067CZ  26262.69240080  .00006122  00000-0  28862-3 0  9991
2 A0139  97.4649 220.0591 0009929  91.0272 269.2100 15.19813447 26026
Epoch: 2026-09-19T16:37Z
TLE epoch observation values (Epoch: 2026-09-19T16:37:03.429Z)
Latitude
-0.00005°
Longitude
-27.80247°
Altitude
509.593 km
Speed
7.609 km/s
True Right ascension
14h 40m 14s
True Declination
0° 00' 00"
Sunlit
Object was in daylight at epoch
Visualization orbit readout
Latitude
Unknown
Longitude
Unknown
Altitude
Unknown
Speed
Unknown
Apparent Right ascension
Unknown
Apparent Declination
Unknown
Sunlit
N/A
Visualization observer readout
Local Sidereal Time
03:12:45
Azimuth
Unknown
Elevation
Unknown
Doppler factor
Unknown
Orbital elements
Apogee altitude
510.205 km
Perigee altitude
496.54 km
Semi-major axis
6,881.51 km
Eccentricity
0.00099
Inclination
97.4649°
RAAN
220.0591°
Arg. of periapsis
91.0272°
True anomaly
269.09623°
Mean anomaly
269.21°
Eccentric anomaly
269.15312°
Mean motion
3.80205 °/min
Orbital period
94.69 mins
BSTAR
0.00028862
Loading maneuver chart data...
Computing Atmospheric mass density...
Loading historical data...
Loading historical data...
Loading historical data...
Loading historical data...
Loading historical data...
Loading historical data...
Loading historical data...

Documentation

Showing up to 5 results
|